YBBNYBCG

Guest
Details From YBBN - Brisbane Intl
To YBCG - Gold Coast International
Flight Number -
Tags generated
Created
Modified
Stats Distance 52 nm / 96 km
Max Altitude 5,500 ft / 1,676 m
Waypoints 3
Social Downloads 1
Likes 0
Share VATSIM

Download

Looking for another format? Having issues loading an existing format? Contact us
Advertisement - Login to hide

Notes

Basic altitude profile: - Ascent Rate: 2500ft/min - Ascent Speed: 250kts - Cruise Altitude: 15000ft - Cruise Speed: 350kts - Descent Rate: 1500ft/min - Descent Speed: 250kts Options: - Use NATs: no - Use PACOTS: no - Use low airways: yes - Use high airways: no

Route

YBBN JCW YBCG

ID Type Via Altitude Latitude Longitude Leg Dist Tot Dist Heading (true) Name
O YBBN APT - 0 ft / 0 m -27.37571˚ 153.12771˚ - 0 nm - Brisbane Intl
JCW VOR - 5,500 ft / 1,676 m -27.76139˚ 153.33444˚ 25 nm 25 nm 155° / 155° JACOBS WELL VOR
O YBCG APT - 0 ft / 0 m -28.16604˚ 153.50616˚ 25 nm 51 nm 159° / 159° Gold Coast International

Altitude Profile

Advertisement - Login to hide

YBBN

Details ICAO YBBN (BNE)
Name Brisbane Intl
Region Australia
Timezone Australia/Brisbane (UTC+10.0)
Stats Elevation 12 ft / 4 m (AMSL)
Location -27.375714° 153.127710°
Runways 2
Magnetic Variation 10.985° E

METAR

YBBN 240500Z 05012KT 9999 FEW027 30/21 Q1010 NOSIG

Decode

TAF

TAF YBBN 232318Z 2400/2506 05012KT 9999 FEW040 FM241000 06007KT 9999 SCT020 FM241800 21005KT 9999 SCT020 SCT040 FM242200 10008KT 9999 SCT030 FM250000 07013KT 9999 FEW035

Decode

Departure Runways

ID Width Length Bearing (true) Bearing (mag) Surface Threshold Offset Overrun Length
01 148 ft / 45 m 11,805 ft / 3,598 m 26.93° 15.94° Asphalt 197 ft / 60 m 0 ft / 0 m
14 98 ft / 30 m 5,787 ft / 1,764 m 145.66° 134.67° Asphalt 197 ft / 60 m 0 ft / 0 m
19 148 ft / 45 m 11,805 ft / 3,598 m 206.92° 195.93° Asphalt 0 ft / 0 m 0 ft / 0 m
32 98 ft / 30 m 5,787 ft / 1,764 m 325.66° 314.67° Asphalt 197 ft / 60 m 0 ft / 0 m

YBCG

Details ICAO YBCG (OOL)
Name Gold Coast International
Region Australia
Timezone Australia/Brisbane (UTC+10.0)
Stats Elevation 20 ft / 6 m (AMSL)
Location -28.166035° 153.506155°
Runways 2
Magnetic Variation 11.331° E

METAR

YBCG 240500Z AUTO 04012KT 9999 // SCT051 SCT078 29/21 Q1010

Decode

TAF

TAF YBCG 232322Z 2400/2424 05012KT 9999 FEW040 FM240900 04007KT 9999 SCT025 FM241500 24004KT 9999 SCT025 FM242200 15005KT 9999 FEW030

Decode

Destination Runways

ID Width Length Bearing (true) Bearing (mag) Surface Threshold Offset Overrun Length
14 148 ft / 45 m 7,687 ft / 2,343 m 150.04° 138.71° Asphalt 0 ft / 0 m 394 ft / 120 m
17 59 ft / 18 m 1,911 ft / 582 m 184.00° 172.67° Asphalt 0 ft / 0 m 0 ft / 0 m
32 148 ft / 45 m 7,687 ft / 2,343 m 330.04° 318.71° Asphalt 0 ft / 0 m 394 ft / 120 m
35 59 ft / 18 m 1,911 ft / 582 m 4.00° 352.67° Asphalt 0 ft / 0 m 0 ft / 0 m

Popular Alternatives